Fort Collins, CO

3:52 AM MST on December 10, 2019 (GMT -0700)
Fort Collins-Loveland Municipal

Weather History for KFNL - October, 2019

Change the Weather History Date:

Monday, October 21, 2019

  Actual Average Record
Temperature  
Mean Temperature 45 °F -  
Max Temperature 55 °F - 82 °F (2003)
Min Temperature 34 °F - 23 °F (1996)
Degree Days  
Heating Degree Days 20    
Month to date heating degree days 334  
Cooling Degree Days 0    
Month to date cooling degree days 0  
Moisture  
Dew Point 18 °F    
Average Humidity 39    
Maximum Humidity 59    
Minimum Humidity 19    
Precipitation  
Precipitation 0.00 in - 0.43 in (2015)
Snow  
Snow 0.00 in - - ()
Snow Depth 0.00 in    
Sea Level Pressure  
Sea Level Pressure 29.96 in    
Wind  
Wind Speed 14 mph (NNW)    
Max Wind Speed 24 mph    
Max Gust Speed 35 mph    
Visibility 10 miles    
Events      
T = Trace of Precipitation, MM = Missing Value Source: NWS Daily Summary

Daily Weather History Graph

Daily Weather History Graph

Search for Another Location

Airport or City:

Astronomy

Oct. 21, 2019 Rise Set
Actual Time 7:17 AM MDT 6:11 PM MDT
Civil Twilight 6:49 AM MDT 6:39 PM MDT
Nautical Twilight 6:17 AM MDT 7:10 PM MDT
Astronomical Twilight 5:46 AM MDT 7:42 PM MDT
Moon No Moon Rise 2:38 PM MDT (10/21)
Length of Visible Light 11h 49m
Length of Day
10h 54m
Waning Gibbous, 47% of the Moon is Illuminated
Oct 21
Waning Gibbous
Oct 27
New
Nov 4
First Quarter
Nov 12
Full
Nov 19
Last Quarter

Hourly Weather History & Observations

Time (MDT) Temp. Windchill Dew Point Humidity Pressure Visibility Wind Dir Wind Speed Gust Speed Precip Events Conditions
12:56 AM 36.0 °F 29.6 °F 19.0 °F 50% 29.88 in 10.0 mi NNW 8.1 mph - N/A   Clear
1:56 AM 37.0 °F 29.3 °F 17.1 °F 44% 29.87 in 10.0 mi North 11.5 mph - N/A   Clear
2:56 AM 37.0 °F 28.5 °F 16.0 °F 42% 29.88 in 10.0 mi NNW 13.8 mph - N/A   Clear
3:56 AM 39.0 °F 29.6 °F 15.1 °F 38% 29.85 in 10.0 mi North 18.4 mph - N/A   Clear
4:56 AM 37.9 °F 28.9 °F 16.0 °F 41% 29.86 in 10.0 mi North 16.1 mph - N/A   Clear
5:56 AM 37.0 °F 28.1 °F 17.1 °F 44% 29.88 in 10.0 mi North 15.0 mph - N/A   Scattered Clouds
6:56 AM 37.0 °F 28.9 °F 17.1 °F 44% 29.90 in 10.0 mi North 12.7 mph - N/A   Clear
7:56 AM 39.0 °F 31.0 °F 17.1 °F 41% 29.92 in 10.0 mi NNW 13.8 mph - N/A   Clear
8:56 AM 42.1 °F 34.2 °F 14.0 °F 32% 29.94 in 10.0 mi NW 16.1 mph - N/A   Overcast
9:56 AM 46.0 °F 39.0 °F 14.0 °F 28% 29.93 in 10.0 mi NNW 17.3 mph - N/A   Partly Cloudy
10:56 AM 50.0 °F - 12.9 °F 23% 29.92 in 10.0 mi North 17.3 mph 24.2 mph N/A   Clear
11:56 AM 52.0 °F - 12.9 °F 21% 29.92 in 10.0 mi NNW 18.4 mph 26.5 mph N/A   Scattered Clouds
12:56 PM 53.1 °F - 12.9 °F 20% 29.92 in 10.0 mi NW 17.3 mph 24.2 mph N/A   Mostly Cloudy
1:56 PM 54.0 °F - 14.0 °F 21% 29.91 in 10.0 mi NNW 23.0 mph 28.8 mph N/A   Mostly Cloudy
2:56 PM 51.1 °F - 16.0 °F 25% 29.92 in 10.0 mi NNW 21.9 mph 27.6 mph N/A   Overcast
3:56 PM 48.9 °F - 17.1 °F 28% 29.95 in 10.0 mi NNW 24.2 mph 27.6 mph N/A   Mostly Cloudy
4:56 PM 48.9 °F - 18.0 °F 29% 29.99 in 10.0 mi North 12.7 mph - N/A   Partly Cloudy
5:56 PM 46.9 °F - 18.0 °F 32% 30.04 in 10.0 mi NW 20.7 mph 27.6 mph N/A   Clear
6:56 PM 43.0 °F 34.8 °F 23.0 °F 45% 30.08 in 10.0 mi NNW 18.4 mph - N/A   Mostly Cloudy
7:56 PM 42.1 °F 36.1 °F 25.0 °F 51% 30.10 in 10.0 mi North 10.4 mph - N/A   Overcast
8:56 PM 39.0 °F 34.0 °F 26.1 °F 60% 30.12 in 10.0 mi North 6.9 mph - N/A   Scattered Clouds
9:56 PM 39.9 °F 31.4 °F 25.0 °F 55% 30.12 in 10.0 mi NNW 16.1 mph 28.8 mph N/A   Mostly Cloudy
11:56 PM 43.0 °F 36.4 °F 19.9 °F 40% 30.11 in 10.0 mi NNW 12.7 mph - N/A   Clear